SCP
0 0 0 0 0 0 0 0 0 0 0 0 0 0 0 0 -0 0 0 0 0 0 0 0 0 0 0 0 0 0 0 0 0 0 0 0 0 0 0 0 0 0 1 1 0
0 0 0 0 0 0 0 0 0 0 0 0 0 0 0 0 0 0 0 0 0 0 0 0 0 0 0 0 0 0 0 0 0 0 0 0 0 0 0 0 0 1 1 1 0
0 0 0 0 0 0 0 0 0 0 0 0 0 0 0 0 0 0 0 0 0 -0 0 0 0 0 0 0 0 0 0 0 0 0 0 0 0 0 0 0 0 0 0 0 0
0 0 0 0 0 0 0 0 0 0 0 0 0 0 0 0 0 0 0 0 0 0 0 0 0 0 0 0 0 0 0 0 0 0 0 0 0 0 0 1 0 0 0 0 0
0 0 0 0 0 0 0 0 0 0 0 0 0 0 0 0 0 0 0 0 0 0 0 0 0 0 0 0 0 0 0 0 0 0 0 0 0 0 0 0 0 0 1 0 0
0 0 0 0 0 0 0 0 0 0 0 0 0 0 0 0 0 0 0 0 0 0 0 0 0 0 0 0 0 0 0 0 0 0 0 0 0 0 0 0 0 1 0 0 0
0 0 0 0 0 0 0 0 0 0 0 0 0 0 0 0 0 0 0 0 0 0 0 0 0 0 0 0 0 0 0 0 0 -0 0 0 0 0 0 0 0 0 1 1 0
0 0 0 0 0 0 0 0 0 0 0 0 0 0 0 0 0 0 0 0 0 0 0 0 0 0 0 0 0 0 0 -0 -0 -0 0 0 0 0 0 0 0 0 0 0 0
0 0 0 0 0 0 0 0 0 0 0 0 0 0 0 0 0 0 0 0 0 0 0 0 0 0 0 0 0 0 0 0 -0 0 0 0 0 0 0 -0 0 0 0 0 0
0 0 0 0 0 0 0 0 0 0 0 0 0 0 0 0 0 0 0 0 0 0 0 0 0 0 0 0 0 0 0 0 -0 -0 -0 0 0 0 0 0 0 0 0 0 0
0 0 0 0 0 0 0 0 0 0 0 0 0 0 0 -0 0 0 0 -0 0 0 0 0 0 0 0 0 0 0 0 0 0 -0 -0 -0 0 0 0 0 0 0 0 0 0
0 0 0 0 0 0 0 0 0 0 0 0 0 0 0 0 0 0 -0 0 0 -0 0 0 0 0 0 0 0 0 0 0 0 0 0 0 0 0 0 0 0 0 0 0 0
0 0 0 0 0 0 0 0 0 0 0 0 0 0 0 0 0 0 -0 -0 -0 -0 0 0 0 0 0 0 -0 -0 0 0 0 0 0 0 0 0 0 0 0 0 0 0 0
0 0 0 0 0 0 0 0 0 0 0 0 0 0 0 0 0 0 0 0 0 -0 -0 -0 0 0 0 -0 -0 -0 -0 0 0 0 0 0 0 0 0 0 0 0 0 0 0
0 0 0 0 0 0 0 0 0 0 0 0 0 0 0 0 0 0 0 0 0 -0 -0 -0 0 -0 0 0 0 0 0 0 0 0 0 0 0 0 0 0 0 0 0 0 0
0 0 0 0 0 0 0 0 0 0 0 0 0 0 0 0 0 0 0 0 0 0 0 -0 0 -0 -0 -0 0 0 0 0 0 -0 0 0 0 0 0 0 0 0 0 0 0
0 0 0 0 0 0 0 0 0 0 0 0 0 0 0 0 0 0 0 0 0 0 0 0 0 0 -0 -0 0 -0 -0 -0 -0 -0 -0 -0 0 -0 0 0 0 0 0 0 0
0 0 0 0 0 0 0 0 0 0 0 0 0 0 0 0 0 0 0 0 0 0 0 0 0 0 -0 0 0 0 0 -0 -0 -0 -0 -0 -0 -0 0 0 0 0 0 0 0
0 0 0 0 0 0 0 0 0 0 0 0 0 0 0 0 0 0 0 0 0 0 0 0 0 -0 0 0 0 0 0 0 0 0 0 0 -0 0 -0 -0 0 0 0 0 0
0 0 0 0 0 0 0 0 0 0 0 0 0 0 0 0 0 0 0 0 0 0 0 0 0 0 -0 0 0 0 0 0 0 0 0 0 0 0 -0 -0 -0 -0 -0 -0 -0
0 0 0 0 0 0 0 0 0 0 0 0 0 0 0 0 0 0 0 0 0 0 0 0 0 0 0 0 -0 0 0 0 0 0 0 0 0 0 0 0 -0 -0 -0 -0 -0
0 0 0 0 0 0 0 0 0 0 0 0 0 0 0 0 0 0 0 0 0 0 0 0 0 0 0 0 0 0 0 0 0 0 0 0 0 0 0 0 0 0 0 0 0
0 0 0 0 0 0 0 0 0 0 0 0 0 0 0 0 0 0 0 0 0 0 0 0 0 0 0 0 0 0 0 0 0 0 0 0 0 0 0 0 0 0 0 0 0
0 0 0 0 0 0 0 0 0 0 0 0 0 0 0 0 0 0 0 0 0 0 0 0 0 0 0 0 0 0 0 0 0 0 0 0 0 0 0 0 0 0 0 0 0
0 0 0 0 0 0 0 0 0 0 0 0 0 0 0 0 0 0 0 0 0 0 0 0 0 0 0 0 0 0 0 0 0 0 0 0 0 0 0 0 0 0 0 0 0
0 0 0 0 0 0 0 0 0 0 0 0 0 0 0 0 0 0 0 0 0 0 0 0 0 0 0 0 0 0 0 0 0 0 0 0 0 0 0 0 0 0 0 0 0
0 0 0 0 0 0 0 0 0 0 0 0 0 0 0 0 0 0 0 0 0 0 0 0 0 0 0 0 0 0 0 0 0 0 0 0 0 0 0 0 0 0 0 0 0
Wind_Speed_500mb
9 12 15 16 16 16 17 20 21 23 27 30 32 31 32 33 10 23 17 26 25 25 29 29 21 22 22 16 19 16 16 33 51 52 50 54 36 20 45 55 40 22 16 11 25
9 12 15 15 16 17 18 20 22 24 27 30 32 31 29 30 7 16 33 33 30 29 27 27 27 27 20 17 13 22 24 47 44 43 35 42 55 40 43 44 49 27 10 19 32
10 11 14 15 16 18 19 21 23 26 28 31 33 28 26 21 2 14 37 34 28 27 24 27 23 24 18 19 23 30 34 42 45 32 31 43 23 27 21 29 46 55 32 28 39
11 12 13 15 16 18 19 21 23 27 29 33 31 23 21 13 5 18 35 33 33 26 19 18 10 15 13 14 17 27 38 47 45 42 27 36 35 30 27 31 33 39 49 42 47
10 13 14 16 17 19 20 21 23 26 30 30 25 18 17 4 6 30 35 33 24 19 17 15 10 11 7 15 20 25 35 43 37 35 39 43 41 37 28 29 33 23 24 42 45
12 14 16 17 18 20 21 22 24 27 28 24 18 16 12 1 21 31 34 26 15 17 18 11 7 12 10 14 21 17 27 31 32 38 39 32 37 35 31 26 27 22 23 30 37
14 15 17 18 18 20 22 22 23 27 22 20 14 13 4 6 20 27 28 23 19 16 15 11 6 4 4 16 20 32 31 33 37 41 29 21 30 40 43 24 18 8 18 20 23
16 17 19 18 18 19 20 22 24 21 17 14 9 11 3 16 19 24 24 15 16 12 6 7 3 6 7 18 17 30 23 29 28 32 24 18 22 32 32 23 14 16 18 24 28
18 16 17 17 17 18 19 21 21 12 13 10 9 5 3 13 20 22 26 16 10 6 8 8 7 12 10 8 13 8 17 20 11 26 18 22 8 10 25 22 30 27 24 21 27
18 15 16 16 16 17 16 17 11 7 14 5 9 3 4 14 15 23 27 12 7 7 5 15 12 12 5 5 14 19 13 9 4 7 21 20 24 21 34 22 27 36 27 24 25
15 14 15 16 16 15 11 8 7 4 6 4 5 5 17 24 9 18 30 13 10 5 18 8 13 22 32 12 15 23 15 13 5 15 5 7 17 25 34 26 29 40 33 32 23
14 14 14 15 13 10 8 3 4 4 5 6 6 4 13 22 11 17 23 10 6 13 26 3 23 22 29 30 19 12 16 19 15 13 14 16 15 13 28 19 39 35 33 31 27
13 13 14 13 12 7 6 8 6 3 7 1 4 5 7 14 9 18 27 12 6 15 16 16 19 16 17 27 32 28 23 13 9 13 10 11 46 37 14 48 31 32 28 33 30
15 12 12 11 8 7 5 10 6 4 2 3 3 5 10 8 5 16 17 6 3 10 9 7 24 21 23 27 25 22 27 29 26 11 17 30 12 37 40 38 33 38 39 31 30
15 11 9 7 5 4 8 7 5 5 6 6 4 9 10 6 17 7 15 9 11 8 8 9 22 29 22 16 27 10 19 14 26 31 18 38 14 32 30 36 36 39 36 27 34
14 11 7 6 6 6 7 4 5 3 7 1 5 9 5 9 7 20 13 8 9 7 8 10 2 13 14 26 11 25 16 5 3 11 18 34 15 32 27 33 31 36 35 29 33
14 11 8 7 6 5 3 6 4 4 2 2 3 7 3 10 8 13 12 18 10 8 11 6 19 7 25 20 10 39 23 5 10 12 12 21 24 19 25 26 28 29 34 30 30
16 11 10 9 7 3 3 2 5 3 5 2 3 3 1 11 5 9 5 6 16 11 4 8 5 19 28 12 11 11 14 8 7 6 9 22 14 9 17 26 30 34 35 34 33
18 13 12 12 8 5 3 0 4 2 5 9 5 3 1 1 6 5 8 7 10 16 8 2 7 6 5 13 16 14 12 9 7 7 9 9 13 15 15 21 28 32 35 37 36
23 13 13 15 12 8 4 6 3 2 3 2 7 4 4 2 4 3 2 4 6 6 11 3 2 6 7 11 7 8 8 0 2 3 6 8 6 14 11 15 18 24 30 32 34
25 9 11 20 15 4 4 4 3 7 2 2 5 6 3 4 1 4 4 3 3 5 5 5 6 6 3 12 13 12 2 5 2 7 3 9 10 12 12 10 15 19 22 26 28
22 5 16 28 6 2 4 3 2 8 5 3 4 2 7 9 5 6 4 5 3 6 3 4 5 3 5 4 3 11 11 8 5 5 5 5 9 8 12 11 12 14 17 20 23
25 8 22 37 7 8 4 3 5 9 9 8 8 5 3 8 3 7 5 2 4 4 3 2 5 2 8 6 5 6 5 7 5 3 5 4 9 10 14 14 10 13 14 17 21
21 8 7 18 7 4 11 9 9 14 8 9 5 8 7 5 2 7 9 6 1 3 5 5 4 7 4 7 3 6 7 8 6 4 7 1 22 23 19 16 15 13 13 17 20
27 10 19 13 18 16 11 14 13 13 13 20 7 19 11 8 6 8 5 5 6 2 3 1 4 6 2 3 2 8 13 12 12 4 7 14 25 29 24 19 15 14 14 16 19
28 17 15 11 15 34 18 19 23 13 22 12 13 24 21 8 9 12 16 10 6 8 4 2 2 1 5 4 6 8 17 18 15 13 5 10 17 17 24 22 19 15 15 16 17
51 38 21 26 20 20 15 18 28 28 27 13 31 18 23 13 7 8 8 14 5 7 6 2 9 6 4 6 7 10 19 26 14 12 14 14 9 29 21 21 19 15 12 13 13
Wind_Direction_500mb
337 331 336 343 341 343 341 338 340 343 343 343 349 349 354 351 10 19 9 345 347 346 356 334 335 318 309 275 248 252 249 246 250 254 257 253 258 270 257 248 240 194 248 109 175
317 325 327 342 338 338 338 334 335 335 336 337 343 347 352 352 64 14 346 350 352 342 334 330 329 327 300 260 240 228 244 248 259 279 292 299 257 213 233 228 250 178 154 156 158
304 313 324 336 336 336 334 329 329 330 331 332 337 346 350 2 85 356 345 345 337 332 310 314 316 325 303 275 248 252 250 268 274 300 322 306 294 273 293 278 222 241 186 181 168
300 309 321 326 329 331 330 325 324 325 328 329 334 346 352 17 3 326 342 340 340 335 315 311 315 334 306 292 279 271 267 276 279 290 294 287 297 266 255 264 314 312 210 190 178
303 308 315 319 322 326 326 323 322 323 327 327 337 348 2 306 1 342 342 340 354 336 326 334 324 314 262 293 298 259 271 276 274 282 262 276 274 268 271 275 308 293 164 182 187
296 302 313 317 320 322 322 322 320 323 324 329 342 349 1 224 337 349 346 346 340 344 344 353 288 247 281 279 284 291 298 282 253 245 268 256 264 258 248 262 290 276 211 190 192
295 303 307 313 316 319 319 320 317 322 324 331 342 360 53 17 350 349 350 342 342 344 339 355 276 275 1 264 291 272 271 267 250 242 245 273 258 242 237 267 265 263 188 183 198
292 300 308 314 319 320 317 317 316 320 330 338 358 11 258 342 358 356 347 342 343 349 338 23 352 269 223 280 284 262 280 268 259 208 226 218 260 209 218 227 245 164 162 163 148
290 304 307 316 320 320 317 318 319 317 338 344 5 40 75 349 359 353 346 337 351 353 17 12 310 279 254 254 282 207 280 219 244 188 188 202 289 20 197 193 231 136 116 127 110
293 304 305 313 317 320 323 323 328 316 342 6 5 317 355 326 333 349 344 327 345 347 3 337 313 301 243 303 329 308 318 2 194 158 177 216 246 323 175 161 155 108 98 89 92
290 294 301 309 317 324 332 330 358 341 27 49 358 330 324 336 293 354 344 322 279 293 20 29 346 343 319 347 286 286 252 262 151 116 103 328 285 238 277 124 66 75 85 69 74
285 290 297 307 315 328 342 349 313 242 273 273 344 316 330 355 330 353 349 311 336 52 16 233 18 323 323 317 330 41 6 41 76 84 50 46 352 223 67 49 75 62 64 71 71
280 290 294 303 313 328 351 351 347 192 263 139 317 323 312 340 316 336 358 322 327 58 34 10 350 300 299 333 353 17 26 41 137 174 158 247 48 51 79 63 57 66 55 61 45
277 280 289 302 309 329 348 347 28 88 286 63 69 319 334 325 269 322 355 314 222 57 64 354 348 331 12 20 357 39 359 68 61 50 35 31 84 36 30 41 34 33 40 55 51
263 262 274 287 293 321 320 342 22 71 306 46 25 319 323 17 318 35 347 324 339 24 120 29 340 346 24 350 339 348 336 27 92 76 49 29 71 26 37 35 35 31 39 47 52
249 248 248 262 265 296 325 349 4 22 243 88 326 331 265 26 350 329 2 358 289 298 105 83 316 324 316 309 288 311 307 307 41 50 43 23 57 34 22 15 25 32 37 35 50
228 227 220 223 257 296 335 15 359 202 33 300 25 343 337 9 6 7 35 39 15 345 13 349 44 343 5 315 353 10 345 8 42 42 57 24 63 51 31 29 37 42 49 48 46
203 208 209 206 210 228 31 7 256 100 205 98 284 259 331 358 52 0 10 351 27 355 52 32 145 14 346 10 322 345 344 7 63 55 69 37 42 39 45 50 58 62 61 59 53
194 191 208 201 196 175 61 81 263 118 118 155 192 213 317 27 316 323 64 352 1 9 350 334 121 30 6 326 333 346 39 352 78 2 72 84 107 95 71 58 49 49 50 45 41
187 183 218 202 188 158 92 258 225 195 103 252 227 284 190 109 276 353 40 32 321 2 325 282 72 41 352 319 247 343 327 86 342 89 102 119 165 117 91 59 55 44 36 37 36
177 173 213 188 168 158 201 239 215 207 119 252 222 163 216 164 296 244 132 107 315 326 309 258 293 49 41 31 351 332 48 42 58 345 98 157 129 49 95 82 73 52 42 39 40
176 156 185 169 130 89 208 162 172 173 179 216 284 149 187 168 201 239 204 39 5 312 323 345 293 122 105 96 322 294 323 315 300 140 42 26 121 132 116 102 88 72 53 46 46
167 138 173 174 193 195 130 156 229 166 200 196 199 221 209 175 232 213 195 156 356 286 332 341 287 227 151 142 173 290 338 317 324 300 177 201 146 150 140 135 121 103 79 64 56
161 148 152 199 214 193 163 184 195 207 220 194 169 147 161 169 111 225 186 181 208 287 330 285 283 289 346 79 69 274 294 306 306 281 167 193 146 171 169 155 140 118 94 79 66
178 202 178 177 217 193 193 148 157 183 219 198 197 217 191 152 176 209 211 186 218 302 262 315 254 309 50 48 338 268 280 283 277 289 263 150 174 169 166 160 141 125 116 97 75
170 168 171 158 150 176 193 199 181 174 168 208 220 199 197 169 214 197 170 177 213 167 222 97 164 300 273 317 354 285 271 250 257 255 203 173 157 157 145 145 142 130 121 96 72
194 189 167 169 167 170 196 180 197 170 201 198 200 173 205 212 115 81 114 94 150 173 163 204 151 163 247 324 304 265 237 218 206 212 209 191 185 162 163 158 145 129 102 80 63
Wind_Speed_850mb
9 12 15 16 16 16 17 20 21 23 27 30 32 31 32 33 10 23 17 26 25 25 29 29 21 22 22 16 19 16 16 33 51 52 50 54 36 20 45 55 40 22 16 11 25
9 12 15 15 16 17 18 20 22 24 27 30 32 31 29 30 7 16 33 33 30 29 27 27 27 27 20 17 13 22 24 47 44 43 35 42 55 40 43 44 49 27 10 19 32
10 11 14 15 16 18 19 21 23 26 28 31 33 28 26 21 2 14 37 34 28 27 24 27 23 24 18 19 23 30 34 42 45 32 31 43 23 27 21 29 46 55 32 28 39
11 12 13 15 16 18 19 21 23 27 29 33 31 23 21 13 5 18 35 33 33 26 19 18 10 15 13 14 17 27 38 47 45 42 27 36 35 30 27 31 33 39 49 42 47
10 13 14 16 17 19 20 21 23 26 30 30 25 18 17 4 6 30 35 33 24 19 17 15 10 11 7 15 20 25 35 43 37 35 39 43 41 37 28 29 33 23 24 42 45
12 14 16 17 18 20 21 22 24 27 28 24 18 16 12 1 21 31 34 26 15 17 18 11 7 12 10 14 21 17 27 31 32 38 39 32 37 35 31 26 27 22 23 30 37
14 15 17 18 18 20 22 22 23 27 22 20 14 13 4 6 20 27 28 23 19 16 15 11 6 4 4 16 20 32 31 33 37 41 29 21 30 40 43 24 18 8 18 20 23
16 17 19 18 18 19 20 22 24 21 17 14 9 11 3 16 19 24 24 15 16 12 6 7 3 6 7 18 17 30 23 29 28 32 24 18 22 32 32 23 14 16 18 24 28
18 16 17 17 17 18 19 21 21 12 13 10 9 5 3 13 20 22 26 16 10 6 8 8 7 12 10 8 13 8 17 20 11 26 18 22 8 10 25 22 30 27 24 21 27
18 15 16 16 16 17 16 17 11 7 14 5 9 3 4 14 15 23 27 12 7 7 5 15 12 12 5 5 14 19 13 9 4 7 21 20 24 21 34 22 27 36 27 24 25
15 14 15 16 16 15 11 8 7 4 6 4 5 5 17 24 9 18 30 13 10 5 18 8 13 22 32 12 15 23 15 13 5 15 5 7 17 25 34 26 29 40 33 32 23
14 14 14 15 13 10 8 3 4 4 5 6 6 4 13 22 11 17 23 10 6 13 26 3 23 22 29 30 19 12 16 19 15 13 14 16 15 13 28 19 39 35 33 31 27
13 13 14 13 12 7 6 8 6 3 7 1 4 5 7 14 9 18 27 12 6 15 16 16 19 16 17 27 32 28 23 13 9 13 10 11 46 37 14 48 31 32 28 33 30
15 12 12 11 8 7 5 10 6 4 2 3 3 5 10 8 5 16 17 6 3 10 9 7 24 21 23 27 25 22 27 29 26 11 17 30 12 37 40 38 33 38 39 31 30
15 11 9 7 5 4 8 7 5 5 6 6 4 9 10 6 17 7 15 9 11 8 8 9 22 29 22 16 27 10 19 14 26 31 18 38 14 32 30 36 36 39 36 27 34
14 11 7 6 6 6 7 4 5 3 7 1 5 9 5 9 7 20 13 8 9 7 8 10 2 13 14 26 11 25 16 5 3 11 18 34 15 32 27 33 31 36 35 29 33
14 11 8 7 6 5 3 6 4 4 2 2 3 7 3 10 8 13 12 18 10 8 11 6 19 7 25 20 10 39 23 5 10 12 12 21 24 19 25 26 28 29 34 30 30
16 11 10 9 7 3 3 2 5 3 5 2 3 3 1 11 5 9 5 6 16 11 4 8 5 19 28 12 11 11 14 8 7 6 9 22 14 9 17 26 30 34 35 34 33
18 13 12 12 8 5 3 0 4 2 5 9 5 3 1 1 6 5 8 7 10 16 8 2 7 6 5 13 16 14 12 9 7 7 9 9 13 15 15 21 28 32 35 37 36
23 13 13 15 12 8 4 6 3 2 3 2 7 4 4 2 4 3 2 4 6 6 11 3 2 6 7 11 7 8 8 0 2 3 6 8 6 14 11 15 18 24 30 32 34
25 9 11 20 15 4 4 4 3 7 2 2 5 6 3 4 1 4 4 3 3 5 5 5 6 6 3 12 13 12 2 5 2 7 3 9 10 12 12 10 15 19 22 26 28
22 5 16 28 6 2 4 3 2 8 5 3 4 2 7 9 5 6 4 5 3 6 3 4 5 3 5 4 3 11 11 8 5 5 5 5 9 8 12 11 12 14 17 20 23
25 8 22 37 7 8 4 3 5 9 9 8 8 5 3 8 3 7 5 2 4 4 3 2 5 2 8 6 5 6 5 7 5 3 5 4 9 10 14 14 10 13 14 17 21
21 8 7 18 7 4 11 9 9 14 8 9 5 8 7 5 2 7 9 6 1 3 5 5 4 7 4 7 3 6 7 8 6 4 7 1 22 23 19 16 15 13 13 17 20
27 10 19 13 18 16 11 14 13 13 13 20 7 19 11 8 6 8 5 5 6 2 3 1 4 6 2 3 2 8 13 12 12 4 7 14 25 29 24 19 15 14 14 16 19
28 17 15 11 15 34 18 19 23 13 22 12 13 24 21 8 9 12 16 10 6 8 4 2 2 1 5 4 6 8 17 18 15 13 5 10 17 17 24 22 19 15 15 16 17
51 38 21 26 20 20 15 18 28 28 27 13 31 18 23 13 7 8 8 14 5 7 6 2 9 6 4 6 7 10 19 26 14 12 14 14 9 29 21 21 19 15 12 13 13
Wind_Direction_850mb
337 331 336 343 341 343 341 338 340 343 343 343 349 349 354 351 10 19 9 345 347 346 356 334 335 318 309 275 248 252 249 246 250 254 257 253 258 270 257 248 240 194 248 109 175
317 325 327 342 338 338 338 334 335 335 336 337 343 347 352 352 64 14 346 350 352 342 334 330 329 327 300 260 240 228 244 248 259 279 292 299 257 213 233 228 250 178 154 156 158
304 313 324 336 336 336 334 329 329 330 331 332 337 346 350 2 85 356 345 345 337 332 310 314 316 325 303 275 248 252 250 268 274 300 322 306 294 273 293 278 222 241 186 181 168
300 309 321 326 329 331 330 325 324 325 328 329 334 346 352 17 3 326 342 340 340 335 315 311 315 334 306 292 279 271 267 276 279 290 294 287 297 266 255 264 314 312 210 190 178
303 308 315 319 322 326 326 323 322 323 327 327 337 348 2 306 1 342 342 340 354 336 326 334 324 314 262 293 298 259 271 276 274 282 262 276 274 268 271 275 308 293 164 182 187
296 302 313 317 320 322 322 322 320 323 324 329 342 349 1 224 337 349 346 346 340 344 344 353 288 247 281 279 284 291 298 282 253 245 268 256 264 258 248 262 290 276 211 190 192
295 303 307 313 316 319 319 320 317 322 324 331 342 360 53 17 350 349 350 342 342 344 339 355 276 275 1 264 291 272 271 267 250 242 245 273 258 242 237 267 265 263 188 183 198
292 300 308 314 319 320 317 317 316 320 330 338 358 11 258 342 358 356 347 342 343 349 338 23 352 269 223 280 284 262 280 268 259 208 226 218 260 209 218 227 245 164 162 163 148
290 304 307 316 320 320 317 318 319 317 338 344 5 40 75 349 359 353 346 337 351 353 17 12 310 279 254 254 282 207 280 219 244 188 188 202 289 20 197 193 231 136 116 127 110
293 304 305 313 317 320 323 323 328 316 342 6 5 317 355 326 333 349 344 327 345 347 3 337 313 301 243 303 329 308 318 2 194 158 177 216 246 323 175 161 155 108 98 89 92
290 294 301 309 317 324 332 330 358 341 27 49 358 330 324 336 293 354 344 322 279 293 20 29 346 343 319 347 286 286 252 262 151 116 103 328 285 238 277 124 66 75 85 69 74
285 290 297 307 315 328 342 349 313 242 273 273 344 316 330 355 330 353 349 311 336 52 16 233 18 323 323 317 330 41 6 41 76 84 50 46 352 223 67 49 75 62 64 71 71
280 290 294 303 313 328 351 351 347 192 263 139 317 323 312 340 316 336 358 322 327 58 34 10 350 300 299 333 353 17 26 41 137 174 158 247 48 51 79 63 57 66 55 61 45
277 280 289 302 309 329 348 347 28 88 286 63 69 319 334 325 269 322 355 314 222 57 64 354 348 331 12 20 357 39 359 68 61 50 35 31 84 36 30 41 34 33 40 55 51
263 262 274 287 293 321 320 342 22 71 306 46 25 319 323 17 318 35 347 324 339 24 120 29 340 346 24 350 339 348 336 27 92 76 49 29 71 26 37 35 35 31 39 47 52
249 248 248 262 265 296 325 349 4 22 243 88 326 331 265 26 350 329 2 358 289 298 105 83 316 324 316 309 288 311 307 307 41 50 43 23 57 34 22 15 25 32 37 35 50
228 227 220 223 257 296 335 15 359 202 33 300 25 343 337 9 6 7 35 39 15 345 13 349 44 343 5 315 353 10 345 8 42 42 57 24 63 51 31 29 37 42 49 48 46
203 208 209 206 210 228 31 7 256 100 205 98 284 259 331 358 52 0 10 351 27 355 52 32 145 14 346 10 322 345 344 7 63 55 69 37 42 39 45 50 58 62 61 59 53
194 191 208 201 196 175 61 81 263 118 118 155 192 213 317 27 316 323 64 352 1 9 350 334 121 30 6 326 333 346 39 352 78 2 72 84 107 95 71 58 49 49 50 45 41
187 183 218 202 188 158 92 258 225 195 103 252 227 284 190 109 276 353 40 32 321 2 325 282 72 41 352 319 247 343 327 86 342 89 102 119 165 117 91 59 55 44 36 37 36
177 173 213 188 168 158 201 239 215 207 119 252 222 163 216 164 296 244 132 107 315 326 309 258 293 49 41 31 351 332 48 42 58 345 98 157 129 49 95 82 73 52 42 39 40
176 156 185 169 130 89 208 162 172 173 179 216 284 149 187 168 201 239 204 39 5 312 323 345 293 122 105 96 322 294 323 315 300 140 42 26 121 132 116 102 88 72 53 46 46
167 138 173 174 193 195 130 156 229 166 200 196 199 221 209 175 232 213 195 156 356 286 332 341 287 227 151 142 173 290 338 317 324 300 177 201 146 150 140 135 121 103 79 64 56
161 148 152 199 214 193 163 184 195 207 220 194 169 147 161 169 111 225 186 181 208 287 330 285 283 289 346 79 69 274 294 306 306 281 167 193 146 171 169 155 140 118 94 79 66
178 202 178 177 217 193 193 148 157 183 219 198 197 217 191 152 176 209 211 186 218 302 262 315 254 309 50 48 338 268 280 283 277 289 263 150 174 169 166 160 141 125 116 97 75
170 168 171 158 150 176 193 199 181 174 168 208 220 199 197 169 214 197 170 177 213 167 222 97 164 300 273 317 354 285 271 250 257 255 203 173 157 157 145 145 142 130 121 96 72
194 189 167 169 167 170 196 180 197 170 201 198 200 173 205 212 115 81 114 94 150 173 163 204 151 163 247 324 304 265 237 218 206 212 209 191 185 162 163 158 145 129 102 80 63